Wilmington, DE

12:03 PM EST on November 23, 2017 (GMT -0500)
New Castle County

Weather History for KILG - January, 2014

Change the Weather History Date:

Wednesday, January 15, 2014

  Actual Average Record
Temperature  
Mean Temperature 40 °F 32 °F  
Max Temperature 46 °F 40 °F 71 °F (1932)
Min Temperature 33 °F 24 °F -2 °F (1912)
Degree Days  
Heating Degree Days 25 33  
Month to date heating degree days 508 489  
Since 1 July heating degree days 2272 2266  
Cooling Degree Days 0 0  
Month to date cooling degree days 0 0  
Year to date cooling degree days 0 0  
Moisture  
Dew Point 38 °F    
Average Humidity 90    
Maximum Humidity 100    
Minimum Humidity 79    
Precipitation  
Precipitation T in 0.10 in 1.04 in (1999)
Month to date precipitation 2.38 1.45  
Year to date precipitation 2.38 1.45  
Snow  
Snow 0.00 in 0.20 in 5.00 in (1927)
Month to date snowfall 5.0 2.3  
Since 1 July snowfall 16.9 6.1  
Snow Depth 0.00 in    
Sea Level Pressure  
Sea Level Pressure 29.94 in    
Wind  
Wind Speed 5 mph (North)    
Max Wind Speed 14 mph    
Max Gust Speed 17 mph    
Visibility 2 miles    
Events Fog , Rain    
T = Trace of Precipitation, MM = Missing Value Source: NWS Daily Summary

Daily Weather History Graph

Daily Weather History Graph

Search for Another Location

Airport or City:

Trip Planner

Search our weather history database for the weather conditions in past years. The results will help you decide how hot, cold, wet, or windy it might be!

Date:

Astronomy

Jan. 15, 2014 Rise Set
Actual Time 7:21 AM EST 5:02 PM EST
Civil Twilight 6:51 AM EST 5:32 PM EST
Nautical Twilight 6:18 AM EST 6:05 PM EST
Astronomical Twilight 5:46 AM EST 6:37 PM EST
Moon 4:58 PM EST (1/15) 6:36 AM EST (1/15)
Length of Visible Light 10h 40m
Length of Day
9h 41m
Full, 100% of the Moon is Illuminated
Jan 15
Full
Jan 15
Full
Jan 24
Last Quarter
Jan 30
New
Feb 6
First Quarter

Hourly Weather History & Observations

Time (EST) Temp. Windchill Dew Point Humidity Pressure Visibility Wind Dir Wind Speed Gust Speed Precip Events Conditions
12:51 AM 37.0 °F - 37.0 °F 100% 29.91 in 0.2 mi Calm Calm - N/A Fog Fog
1:51 AM 35.1 °F 30.1 °F 34.0 °F 96% 29.94 in 0.2 mi South 5.8 mph - N/A Fog Fog
2:51 AM 34.0 °F - 33.1 °F 96% 29.96 in 0.2 mi Calm Calm - N/A Fog Fog
3:51 AM 33.1 °F 26.9 °F 32.0 °F 96% 29.97 in 0.2 mi SSE 6.9 mph - N/A Fog Fog
4:51 AM 34.0 °F - 32.0 °F 92% 29.96 in 0.2 mi Calm Calm - N/A Fog Fog
5:51 AM 35.1 °F 31.0 °F 35.1 °F 100% 29.96 in 0.2 mi SE 4.6 mph - N/A Fog Fog
6:51 AM 35.1 °F 32.2 °F 35.1 °F 100% 29.97 in 0.2 mi ESE 3.5 mph - N/A Fog Fog
7:51 AM 35.1 °F 32.2 °F 35.1 °F 100% 29.99 in 0.2 mi SE 3.5 mph - N/A Fog Fog
7:59 AM 35.6 °F 31.7 °F 35.6 °F 100% 29.99 in 0.2 mi SE 4.6 mph - N/A Fog Fog
8:22 AM 35.6 °F 29.9 °F 35.6 °F 100% 29.99 in 0.2 mi SE 6.9 mph - N/A Fog Fog
8:32 AM 35.6 °F 32.8 °F 35.6 °F 100% 30.00 in 0.2 mi SE 3.5 mph - N/A Fog Fog
8:51 AM 36.0 °F 29.6 °F 36.0 °F 100% 30.00 in 0.2 mi South 8.1 mph - N/A Fog Fog
9:40 AM 35.6 °F 29.9 °F 35.6 °F 100% 30.01 in 0.2 mi SSE 6.9 mph - N/A Fog Fog
9:51 AM 37.0 °F 31.0 °F 37.0 °F 100% 30.01 in 0.2 mi SSE 8.1 mph - N/A Fog Fog
10:51 AM 37.0 °F 31.6 °F 37.0 °F 100% 30.00 in 0.2 mi SSE 6.9 mph - N/A Fog Fog
11:51 AM 39.0 °F 34.8 °F 37.9 °F 96% 29.97 in 0.2 mi SE 5.8 mph - N/A Fog Fog
12:22 PM 39.2 °F 35.9 °F 39.2 °F 100% 29.94 in 0.2 mi SE 4.6 mph - N/A Fog Fog
12:51 PM 42.1 °F 38.4 °F 41.0 °F 96% 29.93 in 0.5 mi SE 5.8 mph - N/A Fog Fog
1:51 PM 42.1 °F - 42.1 °F 100% 29.91 in 0.5 mi Calm Calm - N/A   Overcast
2:51 PM 44.1 °F - 43.0 °F 96% 29.91 in 0.5 mi Calm Calm - N/A   Overcast
3:21 PM 44.6 °F - 42.8 °F 93% 29.91 in 0.5 mi Calm Calm - N/A   Overcast
3:37 PM 46.4 °F - 44.6 °F 93% 29.90 in 0.5 mi Calm Calm - N/A   Mostly Cloudy
3:51 PM 46.0 °F - 44.1 °F 93% 29.91 in 0.5 mi Calm Calm - N/A   Scattered Clouds
4:11 PM 44.6 °F 42.2 °F 42.8 °F 93% 29.91 in 0.5 mi WNW 4.6 mph - N/A   Mostly Cloudy
4:25 PM 44.6 °F 43.1 °F 44.6 °F 100% 29.91 in 0.5 mi NW 3.5 mph - N/A   Overcast
4:51 PM 45.0 °F 41.2 °F 43.0 °F 93% 29.91 in 0.5 mi NW 6.9 mph - N/A   Overcast
5:17 PM 44.6 °F 41.4 °F 42.8 °F 93% 29.90 in 0.5 mi North 5.8 mph - N/A   Overcast
5:38 PM 44.6 °F 40.7 °F 42.8 °F 93% 29.90 in 0.5 mi NW 6.9 mph - N/A   Overcast
5:51 PM 44.1 °F 39.0 °F 43.0 °F 96% 29.91 in 0.5 mi NW 9.2 mph - N/A   Overcast
6:19 PM 42.8 °F 37.5 °F 39.2 °F 87% 29.92 in 0.5 mi North 9.2 mph - N/A   Overcast
6:38 PM 42.8 °F 39.3 °F 39.2 °F 87% 29.92 in 0.5 mi North 5.8 mph - N/A   Overcast
6:51 PM 43.0 °F 38.2 °F 39.0 °F 86% 29.92 in 8.0 mi NW 8.1 mph - N/A   Overcast
7:51 PM 42.1 °F 36.6 °F 37.9 °F 85% 29.92 in 7.0 mi NNW 9.2 mph - N/A   Overcast
8:15 PM 41.0 °F 35.8 °F 37.4 °F 87% 29.92 in 6.0 mi NW 8.1 mph - 0.00 in Rain Light Rain
8:51 PM 41.0 °F 34.3 °F 37.0 °F 86% 29.92 in 6.0 mi North 11.5 mph - 0.00 in Rain Light Rain
9:51 PM 39.9 °F 32.9 °F 35.1 °F 83% 29.94 in 10.0 mi North 11.5 mph - 0.00 in   Overcast
10:51 PM 39.0 °F 34.8 °F 34.0 °F 82% 29.93 in 10.0 mi North 5.8 mph - 0.00 in   Overcast
11:27 PM 37.4 °F 34.9 °F 35.6 °F 93% 29.93 in 10.0 mi WNW 3.5 mph - N/A   Overcast
11:51 PM 39.0 °F 33.4 °F 34.0 °F 82% 29.94 in 9.0 mi NW 8.1 mph - 0.00 in Rain Light Rain